DW8231 Weather Reports


Display with metric or nautical units.
time (UTC)temp
F
wind
direction
speed
MPH
gust
MPH
rain 1hr
in
rain 24hr
in
rain mn
in
humidity
%
barometer
mb
20260906031604 72 119 0.0 0.0 0.00 0.00 0.00 85 1016.5
20260906031046 72 119 0.0 0.0 0.00 0.00 0.00 85 1016.5
20260906030041 72 119 0.0 0.0 0.00 0.00 0.00 84 1016.4
20260906025541 72 119 0.0 0.0 0.00 0.00 0.00 84 1016.1
20260906025040 73 119 0.0 0.0 0.00 0.00 0.00 84 1015.8
20260906024555 73 119 0.0 0.0 0.00 0.00 0.00 84 1015.8
20260906024042 73 119 0.0 0.0 0.00 0.00 0.00 83 1015.7
20260906023539 73 119 0.0 0.0 0.00 0.00 0.00 83 1015.8
20260906023044 73 119 0.0 0.0 0.00 0.00 0.00 82 1015.7
20260906022539 73 119 0.0 0.0 0.00 0.00 0.00 82 1015.6
20260906022040 73 119 0.0 0.0 0.00 0.00 0.00 81 1015.5
20260906021539 74 119 0.0 0.0 0.00 0.00 0.00 81 1015.4
20260906021038 74 119 0.0 0.0 0.00 0.00 0.00 81 1015.3
20260906020040 74 119 0.0 0.0 0.00 0.00 0.00 81 1015.1
20260906015539 74 119 0.0 0.0 0.00 0.00 0.00 81 1014.9
20260906015039 74 119 0.0 0.0 0.00 0.00 0.00 81 1014.6
20260906014539 74 119 0.0 0.0 0.00 0.00 0.00 80 1014.5
20260906014043 74 119 0.0 0.0 0.00 0.00 0.00 80 1014.5
20260906013539 75 119 0.0 0.0 0.00 0.00 0.00 80 1014.5
20260906013039 75 119 0.0 0.0 0.00 0.00 0.00 79 1014.4
20260906012538 75 119 0.0 0.0 0.00 0.00 0.00 79 1014.3
20260906012038 75 119 0.0 0.0 0.00 0.00 0.00 79 1014.3
20260906011538 75 119 0.0 0.0 0.00 0.00 0.00 79 1014.3
20260906011043 75 119 0.0 0.0 0.00 0.00 0.00 78 1014.2
20260906010047 75 119 0.0 0.0 0.00 0.00 0.00 77 1014.0
20260906005537 75 119 0.0 0.0 0.00 0.00 0.00 77 1013.9
20260906005038 76 117 0.0 0.0 0.00 0.00 0.00 77 1013.9
20260906004540 76 117 0.0 0.0 0.00 0.00 0.00 76 1013.9
20260906004038 76 117 0.0 0.0 0.00 0.00 0.00 75 1013.9
20260906003537 77 117 0.0 0.0 0.00 0.00 0.00 74 1014.0
20260906003038 77 116 0.0 0.0 0.00 0.00 0.00 74 1014.0
20260906002537 77 115 0.0 0.0 0.00 0.00 0.00 74 1013.9
20260906002039 77 113 0.0 0.0 0.00 0.00 0.00 73 1013.9
20260906001538 78 115 0.0 0.0 0.00 0.00 0.00 73 1014.0
20260906001036 78 113 0.0 0.0 0.00 0.00 0.00 73 1014.0
20260906000041 78 118 0.0 0.0 0.00 0.00 0.00 74 1013.9
20260905235536 79 158 0.0 0.0 0.00 0.00 0.00 74 1013.8
20260905235037 79 117 0.0 0.0 0.00 0.00 0.00 74 1013.6
20260905234540 79 96 0.0 0.0 0.00 0.00 0.00 74 1013.4
20260905234035 79 132 0.0 0.0 0.00 0.00 0.00 74 1013.4
20260905233539 80 101 0.0 0.0 0.00 0.00 0.00 73 1013.5
20260905233036 80 112 0.0 0.0 0.00 0.00 0.00 73 1013.4
20260905232535 80 70 0.0 0.0 0.00 0.00 0.00 72 1013.4
20260905232038 80 106 0.0 0.0 0.00 0.00 0.00 72 1013.3
20260905231535 81 114 0.0 0.0 0.00 0.00 0.00 71 1013.1
20260905231035 81 90 0.0 0.0 0.00 0.00 0.00 71 1013.0
20260905230036 81 114 0.0 0.0 0.00 0.00 0.00 70 1013.2
20260905225537 81 142 0.0 0.0 0.00 0.00 0.00 70 1013.3
20260905225039 82 83 0.0 0.0 0.00 0.00 0.00 69 1013.3
20260905224535 82 130 0.0 0.0 0.00 0.00 0.00 68 1013.1
20260905224036 82 70 0.0 0.0 0.00 0.00 0.00 68 1013.0
20260905223535 82 48 0.0 0.0 0.00 0.00 0.00 68 1013.0
20260905223035 82 128 0.0 0.0 0.00 0.00 0.00 67 1013.2
20260905222534 82 112 0.0 0.0 0.00 0.00 0.00 68 1013.2
20260905222034 82 116 0.0 0.0 0.00 0.00 0.00 67 1013.1
20260905221534 82 94 0.0 0.0 0.00 0.00 0.00 68 1012.9
20260905221034 82 47 0.0 0.0 0.00 0.00 0.00 67 1012.8
20260905220038 82 28 0.0 0.0 0.00 0.00 0.00 68 1012.9
20260905215533 82 105 0.0 0.0 0.00 0.00 0.00 68 1012.9
20260905215033 82 86 0.0 0.0 0.00 0.00 0.00 69 1012.9
20260905214531 82 360 0.0 0.0 0.00 0.00 0.00 69 1013.0
20260905214031 82 34 0.0 0.0 0.00 0.00 0.00 69 1013.0
20260905213530 82 360 0.0 0.0 0.00 0.00 0.00 69 1013.1
20260905213030 82 26 0.0 0.0 0.00 0.00 0.00 69 1013.2
20260905212529 82 51 0.0 0.0 0.00 0.00 0.00 69 1013.2
20260905212027 82 104 0.0 0.0 0.00 0.00 0.00 70 1013.5
20260905211552 82 107 0.0 0.0 0.00 0.00 0.00 70 1013.6
20260905211025 82 84 0.0 0.0 0.00 0.00 0.00 70 1013.7
20260905210027 81 40 0.0 0.0 0.00 0.00 0.00 70 1013.7
20260905205525 81 52 0.0 0.0 0.00 0.00 0.00 70 1013.8
20260905205024 81 51 0.0 0.0 0.00 0.00 0.00 71 1014.0
20260905204524 81 100 0.0 0.0 0.00 0.00 0.00 71 1014.1
20260905204023 81 22 0.0 0.0 0.00 0.00 0.00 70 1014.2
20260905203520 80 94 0.0 0.0 0.00 0.00 0.00 71 1014.3
20260905203018 80 53 0.0 0.0 0.00 0.00 0.00 71 1014.4
20260905202519 80 73 0.0 0.0 0.00 0.00 0.00 71 1014.4
20260905202019 80 106 0.0 0.0 0.00 0.00 0.00 71 1014.6
20260905201525 80 100 0.0 0.0 0.00 0.00 0.00 71 1014.7
20260905201016 80 103 0.0 0.0 0.00 0.00 0.00 71 1014.9
20260905200016 79 101 0.0 0.0 0.00 0.00 0.00 72 1014.9
20260905195515 79 124 0.0 0.0 0.00 0.00 0.00 73 1014.9
20260905195014 79 80 0.0 0.0 0.00 0.00 0.00 74 1014.9
20260905194514 79 115 0.0 0.0 0.00 0.00 0.00 73 1015.0
20260905194014 79 108 0.0 0.0 0.00 0.00 0.00 73 1015.1
20260905193514 79 36 0.0 0.0 0.00 0.00 0.00 73 1014.9
20260905193014 79 46 0.0 0.0 0.00 0.00 0.00 73 1015.1
20260905192513 79 120 0.0 0.0 0.00 0.00 0.00 73 1015.2
20260905192012 79 76 0.0 0.0 0.00 0.00 0.00 74 1015.2
20260905191512 79 71 0.0 0.0 0.00 0.00 0.00 73 1015.1
20260905191012 79 42 0.0 0.0 0.00 0.00 0.00 74 1015.1
20260905190013 79 142 0.0 0.0 0.00 0.00 0.00 74 1015.1
20260905185510 79 105 0.0 0.0 0.00 0.00 0.00 74 1015.2
20260905185011 79 144 0.0 0.0 0.00 0.00 0.00 74 1015.1
20260905184509 79 52 0.0 0.0 0.00 0.00 0.00 75 1015.1
20260905184008 78 117 0.0 0.0 0.00 0.00 0.00 75 1015.0
20260905183508 78 149 0.0 0.0 0.00 0.00 0.00 75 1015.0
20260905183008 78 67 0.0 0.0 0.00 0.00 0.00 76 1015.0
20260905182507 78 80 0.0 0.0 0.00 0.00 0.00 77 1015.0
20260905182006 77 122 0.0 0.0 0.00 0.00 0.00 76 1015.1
20260905181506 78 112 0.0 0.0 0.00 0.00 0.00 77 1015.2
20260905181005 78 118 0.0 0.0 0.00 0.00 0.00 76 1015.3
20260905180005 78 113 0.0 0.0 0.00 0.00 0.00 78 1015.4
20260905175507 77 74 0.0 0.0 0.00 0.00 0.00 79 1015.5
20260905175003 77 148 0.0 0.0 0.00 0.00 0.00 79 1015.4
20260905174503 77 119 0.0 0.0 0.00 0.00 0.00 80 1015.6
20260905174001 77 122 0.0 0.0 0.00 0.00 0.00 82 1015.7
20260905173559 76 174 0.0 0.0 0.00 0.00 0.00 84 1015.7
20260905173104 75 105 0.0 0.0 0.00 0.00 0.00 85 1015.9
20260905172557 75 109 0.0 0.0 0.00 0.00 0.00 86 1016.0
20260905172055 75 117 0.0 0.0 0.00 0.00 0.00 87 1016.1
20260905171553 75 78 0.0 0.0 0.00 0.00 0.00 89 1016.0
20260905171052 74 44 0.0 0.0 0.00 0.00 0.00 89 1016.0
20260905170049 74 116 0.0 0.0 0.00 0.00 0.00 91 1015.9
20260905165548 73 116 0.0 0.0 0.00 0.00 0.00 91 1016.0
20260905165050 73 115 0.0 0.0 0.00 0.00 0.00 92 1016.0
20260905164545 73 71 0.0 0.0 0.00 0.00 0.00 93 1016.0
20260905164044 72 50 0.0 0.0 0.00 0.00 0.00 93 1016.0
20260905163542 72 42 0.0 0.0 0.00 0.00 0.00 93 1016.1
20260905163041 72 40 0.0 0.0 0.00 0.00 0.00 94 1016.2
20260905162541 72 40 0.0 0.0 0.00 0.00 0.00 94 1016.1
20260905162041 72 40 0.0 0.0 0.00 0.00 0.00 94 1016.2
20260905161539 71 40 0.0 0.0 0.00 0.00 0.00 94 1016.0
20260905161039 71 40 0.0 0.0 0.00 0.00 0.00 94 1016.0
20260905160041 71 40 0.0 0.0 0.00 0.00 0.00 94 1015.5
20260905155541 70 39 0.0 0.0 0.00 0.00 0.00 94 1015.4
20260905155041 70 40 0.0 0.0 0.00 0.00 0.00 94 1015.5
20260905154540 70 40 0.0 0.0 0.00 0.00 0.00 94 1015.5
20260905154043 70 38 0.0 0.0 0.00 0.00 0.00 94 1015.5
20260905153541 70 52 0.0 0.0 0.00 0.00 0.00 94 1015.5
20260905153040 70 43 0.0 0.0 0.00 0.00 0.00 94 1015.5
20260905152541 70 47 0.0 0.0 0.00 0.00 0.00 94 1015.6
20260905152040 69 47 0.0 0.0 0.00 0.00 0.00 94 1015.8
20260905151546 69 42 0.0 0.0 0.00 0.00 0.00 94 1015.8
20260905151038 69 42 0.0 0.0 0.00 0.00 0.00 94 1015.7
20260905150038 69 26 0.0 0.0 0.00 0.00 0.00 94 1015.5
20260905145537 69 56 0.0 0.0 0.00 0.00 0.00 94 1015.6
20260905145038 69 24 0.0 0.0 0.00 0.00 0.00 94 1015.5
20260905144538 69 43 0.0 0.0 0.00 0.00 0.00 94 1015.5
20260905144039 69 44 0.0 0.0 0.00 0.00 0.00 94 1015.5
20260905143542 69 44 0.0 0.0 0.00 0.00 0.00 94 1015.5
20260905143047 69 44 0.0 0.0 0.00 0.00 0.00 94 1015.5
20260905142539 69 45 0.0 0.0 0.00 0.00 0.00 94 1015.6
20260905142038 69 45 0.0 0.0 0.00 0.00 0.00 94 1015.7
20260905141537 69 45 0.0 0.0 0.00 0.00 0.00 94 1015.6
20260905141036 69 45 0.0 0.0 0.00 0.00 0.00 94 1015.6
20260905140037 69 45 0.0 0.0 0.00 0.00 0.00 94 1015.5
20260905135538 69 45 0.0 0.0 0.00 0.00 0.00 94 1015.4
20260905135035 69 45 0.0 0.0 0.00 0.00 0.00 94 1015.3
20260905134548 69 45 0.0 0.0 0.00 0.00 0.00 94 1015.4
20260905134034 68 45 0.0 0.0 0.00 0.00 0.00 94 1015.2
20260905133535 68 45 0.0 0.0 0.00 0.00 0.00 94 1015.1
20260905133034 68 46 0.0 0.0 0.00 0.00 0.00 94 1014.9
20260905132532 68 45 0.0 0.0 0.00 0.00 0.00 94 1014.7
20260905132034 68 45 0.0 0.0 0.00 0.00 0.00 94 1014.7
20260905131531 68 46 0.0 0.0 0.00 0.00 0.00 94 1014.6
20260905131030 68 46 0.0 0.0 0.00 0.00 0.00 94 1014.5
20260905130030 68 46 0.0 0.0 0.00 0.00 0.00 94 1014.1
20260905125529 68 45 0.0 0.0 0.00 0.00 0.00 94 1014.2
20260905125029 68 49 0.0 0.0 0.00 0.00 0.00 94 1014.1
20260905124536 68 66 0.0 0.0 0.00 0.00 0.00 94 1014.0
20260905124031 68 15 0.0 0.0 0.00 0.00 0.00 94 1014.0
20260905123528 68 17 0.0 0.0 0.00 0.00 0.00 94 1014.0
20260905123028 68 17 0.0 0.0 0.00 0.00 0.00 94 1014.0
20260905122531 68 17 0.0 0.0 0.00 0.00 0.00 94 1014.0
20260905122028 67 16 0.0 0.0 0.00 0.00 0.00 94 1014.0
20260905121527 67 17 0.0 0.0 0.00 0.00 0.00 94 1014.1
20260905121027 67 20 0.0 0.0 0.00 0.00 0.00 94 1014.0
20260905120027 67 19 0.0 0.0 0.00 0.00 0.00 94 1014.0
20260905115527 67 18 0.0 0.0 0.00 0.00 0.00 94 1014.0
20260905115027 67 18 0.0 0.0 0.00 0.00 0.00 94 1013.9
20260905114525 67 17 0.0 0.0 0.00 0.00 0.00 94 1013.8
20260905114030 67 17 0.0 0.0 0.00 0.00 0.00 94 1014.0
20260905113526 67 16 0.0 0.0 0.00 0.00 0.00 94 1013.9
20260905113024 67 16 0.0 0.0 0.00 0.00 0.00 94 1013.8
20260905112526 67 17 0.0 0.0 0.00 0.00 0.00 94 1013.7
20260905112024 67 17 0.0 0.0 0.00 0.00 0.00 94 1013.7
20260905111524 67 17 0.0 0.0 0.00 0.00 0.00 94 1013.6
20260905111025 67 16 0.0 0.0 0.00 0.00 0.00 94 1013.6
20260905110026 67 16 0.0 0.0 0.00 0.00 0.00 94 1013.5
20260905105525 67 16 0.0 0.0 0.00 0.00 0.00 94 1013.6
20260905105025 67 16 0.0 0.0 0.00 0.00 0.00 94 1013.6
20260905104526 67 15 0.0 0.0 0.00 0.00 0.00 94 1013.5
20260905104029 67 15 0.0 0.0 0.00 0.00 0.00 94 1013.4
20260905103525 67 15 0.0 0.0 0.00 0.00 0.00 94 1013.4
20260905103025 67 15 0.0 0.0 0.00 0.00 0.00 94 1013.4
20260905102524 67 15 0.0 0.0 0.00 0.00 0.00 94 1013.7
20260905102024 67 15 0.0 0.0 0.00 0.00 0.00 94 1013.7
20260905101526 67 15 0.0 0.0 0.00 0.00 0.00 94 1013.4
20260905101023 66 15 0.0 0.0 0.00 0.00 0.00 94 1013.0
20260905100024 66 15 0.0 0.0 0.00 0.00 0.00 94 1012.8
20260905095523 66 15 0.0 0.0 0.00 0.00 0.00 94 1012.6
20260905095023 66 19 0.0 0.0 0.00 0.00 0.00 94 1012.6
20260905094524 66 19 0.0 0.0 0.00 0.00 0.00 94 1012.7
20260905094023 66 11 0.0 0.0 0.00 0.00 0.00 94 1012.7
20260905093523 66 11 0.0 0.0 0.00 0.00 0.00 94 1012.7
20260905093023 66 30 0.0 0.0 0.00 0.00 0.00 94 1012.7
20260905092522 66 31 0.0 0.0 0.00 0.00 0.00 94 1012.7
20260905092022 66 35 0.0 0.0 0.00 0.00 0.00 94 1012.9
20260905091523 66 5 0.0 0.0 0.00 0.00 0.00 94 1012.9
20260905091021 66 10 0.0 0.0 0.00 0.00 0.00 94 1012.8
20260905090023 66 28 0.0 0.0 0.00 0.00 0.00 94 1013.1
20260905085523 66 51 0.0 0.0 0.00 0.00 0.00 93 1013.1
20260905085022 66 42 0.0 0.0 0.00 0.00 0.00 93 1013.2
20260905084522 66 28 0.0 0.0 0.00 0.00 0.00 93 1013.2
20260905084022 66 17 0.0 0.0 0.00 0.00 0.00 93 1013.2
20260905083522 66 35 0.0 0.0 0.00 0.00 0.00 93 1013.3
20260905083025 66 35 0.0 0.0 0.00 0.00 0.00 93 1013.4
20260905082522 66 29 0.0 0.0 0.00 0.00 0.00 93 1013.3
20260905082022 66 49 0.0 0.0 0.00 0.00 0.00 93 1013.2
20260905081528 66 40 0.0 0.0 0.00 0.00 0.00 93 1013.2
20260905081021 66 20 0.0 0.0 0.00 0.00 0.00 93 1013.1
20260905080022 66 39 0.0 0.0 0.00 0.00 0.00 93 1013.1
20260905075522 66 24 0.0 0.0 0.00 0.00 0.00 93 1013.2
20260905075021 66 22 0.0 0.0 0.00 0.00 0.00 93 1013.2
20260905074530 66 22 0.0 0.0 0.00 0.00 0.00 93 1013.3
20260905074022 66 22 0.0 0.0 0.00 0.00 0.00 93 1013.4
20260905073521 66 22 0.0 0.0 0.00 0.00 0.00 93 1013.4
20260905073020 66 22 0.0 0.0 0.00 0.00 0.00 93 1013.4
20260905072520 66 22 0.0 0.0 0.00 0.00 0.00 92 1013.3
20260905072022 66 22 0.0 0.0 0.00 0.00 0.00 93 1013.3
20260905071519 66 22 0.0 0.0 0.00 0.00 0.00 92 1013.4
20260905071021 66 22 0.0 0.0 0.00 0.00 0.00 92 1013.3
20260905070019 66 22 0.0 0.0 0.00 0.00 0.00 92 1013.4
20260905065518 67 22 0.0 0.0 0.00 0.00 0.00 92 1013.5
20260905065018 67 22 0.0 0.0 0.00 0.00 0.00 92 1013.5
20260905064517 67 22 0.0 0.0 0.00 0.00 0.00 92 1013.5
20260905064020 67 22 0.0 0.0 0.00 0.00 0.00 92 1013.4
20260905063516 67 22 0.0 0.0 0.00 0.00 0.00 92 1013.4
20260905063015 67 22 0.0 0.0 0.00 0.00 0.00 91 1013.4
20260905062513 67 22 0.0 0.0 0.00 0.00 0.00 91 1013.2
20260905062013 68 22 0.0 0.0 0.00 0.00 0.00 91 1013.1
20260905061512 68 22 0.0 0.0 0.00 0.00 0.00 91 1013.1
20260905061011 68 22 0.0 0.0 0.00 0.00 0.00 91 1013.2
20260905060010 68 22 0.0 0.0 0.00 0.00 0.00 91 1013.0
20260905055509 68 22 0.0 0.0 0.00 0.00 0.00 90 1012.9
20260905055008 68 22 0.0 0.0 0.00 0.00 0.00 90 1012.8
20260905054508 68 22 0.0 0.0 0.00 0.00 0.00 90 1012.7
20260905054007 69 22 0.0 0.0 0.00 0.00 0.00 90 1012.7
20260905053507 69 22 0.0 0.0 0.00 0.00 0.00 90 1012.5
20260905053005 69 22 0.0 0.0 0.00 0.00 0.00 90 1012.5
20260905052505 69 22 0.0 0.0 0.00 0.00 0.00 89 1012.6
20260905052005 69 22 0.0 0.0 0.00 0.00 0.00 89 1012.6
20260905051506 69 22 0.0 0.0 0.00 0.00 0.00 89 1012.5
20260905051003 69 22 0.0 0.0 0.00 0.00 0.00 89 1012.6
20260905050004 70 22 0.0 0.0 0.00 0.00 0.00 88 1012.6
20260905045503 70 22 0.0 0.0 0.00 0.00 0.00 88 1012.6
20260905045002 70 22 0.0 0.0 0.00 0.00 0.00 88 1012.7
20260905044502 70 22 0.0 0.0 0.00 0.00 0.00 88 1012.6
20260905044100 70 22 0.0 0.0 0.00 0.00 0.00 87 1012.6
20260905043600 70 22 0.0 0.0 0.00 0.00 0.00 87 1012.4
20260905043059 71 22 0.0 0.0 0.00 0.00 0.00 87 1012.4
20260905042602 71 22 0.0 0.0 0.00 0.00 0.00 86 1012.5
20260905042059 71 22 0.0 0.0 0.00 0.00 0.00 86 1012.5
20260905041600 71 22 0.0 0.0 0.00 0.00 0.00 86 1012.5
20260905041056 71 22 0.0 0.0 0.00 0.00 0.00 85 1012.5
20260905040058 72 22 0.0 0.0 0.00 0.00 0.00 85 1012.6
20260905035555 72 22 0.0 0.0 0.00 0.00 0.00 84 1012.6
20260905035054 72 22 0.0 0.0 0.00 0.00 0.00 84 1012.6
20260905034554 72 22 0.0 0.0 0.00 0.00 0.00 84 1012.6
20260905034053 73 22 0.0 0.0 0.00 0.00 0.00 84 1012.6
20260905033552 73 22 0.0 0.0 0.00 0.00 0.00 83 1012.6
20260905033052 73 22 0.0 0.0 0.00 0.00 0.00 83 1012.6
20260905032551 73 22 0.0 0.0 0.00 0.00 0.00 83 1012.5
20260905032049 73 22 0.0 0.0 0.00 0.00 0.00 83 1012.3